Location: Bodest
(46.3000°N, 22.5667°E)
Time: 19:54:03
(UTC+00:00)

SL-19 R/B - Pass Details

Date: 07 June 2022
Orbit: 874 x 1208 km, 100.6° (Epoch: 02 July)

Event Time Altitude Azimuth Distance (km) Brightness Sun altitude
Rises 19:40:07 0° 8° (N) 4,071 8.4 -11.1°
Reaches altitude 10° 19:43:20 10° 355° (N) 3,134 8.1 -11.4°
Maximum altitude 19:48:30 22° 309° (NW) 2,378 7.6 -12.0°
Drops below altitude 10° 19:53:42 10° 263° (W) 3,150 7.5 -12.5°
Sets 19:56:58 0° 249° (WSW) 4,097 7.9 -12.8°
